map of MCP home
MCP - Airport
Location
City:  Macapá, Pará, Brazil
Name:Alberto Alcolumbre International Airport
ICAO:SBMQ
IATA:MCP

Details
Type:Airport (Aerodrome, Airfield)
Use:Public/Civil, International (customs port of entry)
Latitude:0°03'02"N (0.050664)
Longitude:51°04'20"W (-51.072177)
Datum:WGS 1984
Elevation:56 ft (17 m)
Variation:19.35°W (WMM2015 magnetic declination)
-0.04° annual change
Runways:1
Longest:6890 × 148 ft (2100 × 45 m), paved

Time
Time Zone:UTC-3
Local Time:

Weather
METAR:SBMQ 181200Z 04013KT 9999 SCT012 32/23 Q1013
TAF:SBMQ 181000Z 1812/1912 35005KT 9999 FEW017 TX36/1817Z TN25/1906Z
BECMG 1816/1818 02010KT SCT025 FEW030TCU
BECMG 1822/1824 05008KT CAVOK
BECMG 1903/1905 36005KT
BECMG 1909/1911 04008KT SCT015
RMK PCQ

Related Locations
Nearby:
Farthest:GEB: 12414 mi / 19979 km
Gebe, Gebe Island, ML, ID

Find:

   beyond  
but within

Other Information
Maps:
NOTAMs:
Links:
Sources:

  
flag of Brazil
flag of Pará
flag of Macapá
  

Sectional Chart

Flight Planning
at skyvector.com

Satellite Image

Google Maps Satellite view

 

Copyright © 2004-2017 Karl L. Swartz. All rights reserved.
The Great Circle Mapper name and logo are trademarks of the Great Circle Mapper.
All other trademarks mentioned herein belong to their respective owners.
Please see credits for attibutions and further copyright information.

  Follow gcmap on Facebook Follow gcmap on Twitter Follow gcmap on Google+ GCmap on LinkedIn

hCard Microformat

Geo Microformat